Regional Weather Roundup
Issued by NWS

Home | Current Version | Previous Version | Graphics & Text | Print | Product List | Glossary On
Versions: 1 2 3 4 5 6 7 8 9 10 11 12 13 14 15 16 17 18 19 20 21 22 23 24 25 26 27 28 29 30 31 32 33 34 35 36 37 38 39 40 41 42 43 44 45 46 47 48 49 50
000
ASUS45 KTFX 260010
RWRMT
MONTANA REGIONAL WEATHER ROUNDUP
NATIONAL WEATHER SERVICE GREAT FALLS MT
600 PM MDT TUE APR 25 2017

NOTE: "FAIR" INDICATES FEW OR NO CLOUDS BELOW 12000 FEET WITH NO
SIGNIFICANT WEATHER AND/OR OBSTRUCTIONS TO VISIBILITY.

MTZ001>007-043-260100-
WEST OF THE DIVIDE

CITY           SKY/WX    TMP DP  RH WIND       PRES   REMARKS
KALISPELL      CLOUDY    43  41  93 S6        29.81F
MISSOULA       MOSUNNY   52  37  56 NW17      29.82S
BUTTE          PTSUNNY   49  25  39 VRB3      29.80F
MULLAN PASS    CLOUDY    32  32 100 VRB3      29.83S
ANACONDA         N/A     50  27  40 W12G18    29.79F
DEER LODGE       N/A     50  30  46 NW12      29.81F
EUREKA           N/A     48  34  57 W12G17    29.81R
HAMILTON         N/A     52  28  40 NE10      29.81S
PLAINS           N/A     54  37  52 SW10      29.85S
$$

MTZ008-052>055-260100-
SOUTHWEST MONTANA

CITY           SKY/WX    TMP DP  RH WIND       PRES   REMARKS
BOZEMAN        CLOUDY    50  37  61 N15G23    29.78R
DILLON         PTSUNNY   50  26  39 S3        29.78F
W YELLOWSTONE  CLOUDY    39  32  75 W7        29.82R
ENNIS          PTSUNNY   48  27  43 NW17      29.84R
THREE FORKS      N/A     53   3  13 E3        29.80S
TWIN BRIDGES     N/A     54  20  26 SW5       29.80S VSB 0
$$

MTZ009-010-012-014-046-048-049-054-260100-
EAST SLOPES AND CENTRAL MONTANA

CITY           SKY/WX    TMP DP  RH WIND       PRES   REMARKS
CUT BANK       CLOUDY    39  34  82 N12       29.83S WCI  32
GREAT FALLS    CLOUDY    46  37  71 E10       29.78S
MALMSTROM AFB  CLOUDY    45  39  78 E9        29.79R
HELENA         SUNNY     56  25  30 W14G21    29.75F
AUGUSTA        LGT RAIN  38  38  99 N17G24    29.81R WCI  29
BOWMANS CRNR   FLURRIES  38  37  94 N23       29.77R WCI  27
CHOTEAU          N/A     39  39 100 NE12      29.84R WCI  32
FAIRFIELD      FLURRIES  39  37  91 NE15      29.80R WCI  30
POWER          SHOWER    37  36  95 N15       29.82R WCI  28
RAYNESFORD     PTSUNNY   44  38  80 SE7       29.78F
ULM            PTSUNNY   46  38  74 NE9       29.77R
$$

MTZ011-013-016-021-045-047-050-051-260100-
NORTH CENTRAL MONTANA

CITY           SKY/WX    TMP DP  RH WIND       PRES   REMARKS
HAVRE          CLOUDY    47  34  60 E14       29.82S
LEWISTOWN      LGT RAIN  40  35  83 E10       29.82R
CHINOOK          N/A     43  28  56 E14G20    29.86R
DENTON         HVY RAIN  42  38  85 NW13      29.80R
FORT BENTON      N/A     45  41  87 N7        29.82S
GEYSER         PTSUNNY   40  37  87 NE6       29.80F
GRASS RANGE    PTSUNNY   40  34  81 E9        29.80S
JUDITH GAP     PTSUNNY   38  35  87 S13       29.81S WCI  30
STANFORD       LGT RAIN  40  37  88 S9        29.81R
WINIFRED       PTSUNNY   42  32  69 E17       29.82R
$$

MTZ017>020-022>027-061-062-260100-
NORTHEAST MONTANA

CITY           SKY/WX    TMP DP  RH WIND       PRES   REMARKS
GLASGOW        PTSUNNY   44  24  45 SE13G18   29.93R
JORDAN           N/A     40  26  57 E8G16     29.91S
SIDNEY         CLOUDY    39  25  57 E8        29.97R
WOLF POINT     CLOUDY    45  23  42 E14       29.95R
PLENTYWOOD       N/A     39  21  48 E8        29.97R
POPLAR           N/A     41  21  45 NE12      29.96S
SCOBEY           N/A     39  21  48 NE8       29.94S
$$

MTZ028>42-056>058-260100-
SOUTHCENTRAL AND SOUTHEAST MONTANA

CITY           SKY/WX    TMP DP  RH WIND       PRES   REMARKS
BAKER          CLOUDY    34  24  67 NE8       29.91R WCI  27
BILLINGS       CLOUDY    38  29  70 VRB3      29.87S
LIVINGSTON     SUNNY     51  35  54 CALM      29.78F
MILES CITY     CLOUDY    37  25  61 NE9       29.92R WCI  30
BIG TIMBER     MOSUNNY   45  37  76 E13       29.83S
LAUREL           N/A     39  25  58 CALM      29.86F
ROUNDUP          N/A     41  29  62 E5        29.79S
$$

REGIONAL REPORTS...DAKOTAS

CITY           SKY/WX    TMP DP  RH WIND       PRES   REMARKS
WILLISTON      CLOUDY    40  25  55 E9        29.98R
MINOT          CLOUDY    43  26  51 N15       29.93R
DICKINSON      CLOUDY    32  23  69 N15       29.89S WCI  22
BEACH          CLOUDY    36  25  64 NE12      29.94S WCI  27
TIOGA          CLOUDY    37  28  70 NE12G18   29.97S WCI  30
WATFORD CITY   CLOUDY    37  25  60 NE12      29.95S WCI  30
BISMARCK       CLOUDY    36  26  67 N13       29.90S WCI  27
GRAND FORKS    CLOUDY    37  29  72 N22       29.88R WCI  26
FARGO          CLOUDY    37  30  75 N21G35    29.78S WCI  26
BUFFALO SD       N/A     29  25  85 NE13      29.82R WCI  19
RAPID CITY     FLURRIES  28  24  85 N20       29.84R WCI  15
$$

REGIONAL REPORTS...WYOMING/IDAHO/WASHINGTON

CITY           SKY/WX    TMP DP  RH WIND       PRES   REMARKS
GILLETTE       LGT SNOW  28  28 100 N13       29.84R WCI  17
SHERIDAN       CLOUDY    34  30  85 CALM      29.86S
CODY           SUNNY     43  32  65 NE13      29.81S
YELLOWSTONE LA   N/A     38  27  64 VRB6      29.83S
IDAHO FALLS    CLOUDY    50  40  68 SW20G28   29.83R
SALMON         CLOUDY    50  34  53 NW16      29.79S
BOISE          MOSUNNY   57  30  35 W12       29.89F
SPOKANE        PTSUNNY   54  37  52 SW20      29.81F
$$

REGIONAL REPORTS...ALBERTA

CITY           SKY/WX    TMP DP  RH WIND       PRES   REMARKS
EDMONTON       CLOUDY    36  32  87 SE3       29.93F
CALGARY        SNOWSHWR  32  27  80 NE10      29.86S WCI  24
LETHBRIDGE     CLOUDY    37  32  81 N9        29.86S WCI  31
MEDICINE HAT   LGT RAIN  39  36  87 W2        29.86S
WATERTON GATE    N/A     34  30  86 E2          N/A
CARDSTON         N/A     37  32  81 N7          N/A
MILK RIVER       N/A     39  34  81 NW13        N/A  WCI  32
$$

REGIONAL REPORTS...SASKATCHEWAN

CITY           SKY/WX    TMP DP  RH WIND       PRES   REMARKS
SWIFT CURRENT  CLOUDY    34  25  69 SE15G21   29.93S WCI  24
REGINA         PTSUNNY   36  21  55 E9        30.03R WCI  29
SASKATOON      CLOUDY    37  19  48 E12       30.07R WCI  30
CYPRESS HILLS    N/A     30  28  93 SE12G18     N/A  WCI  21
VAL MARIE        N/A     37  25  60 SE10        N/A  WCI  30
ROCKGLEN         N/A     34  25  69 E3          N/A
ASSINIBOIA       N/A     36  32  87 SE10        N/A  WCI  28
$$



USA.gov is the U.S. government's official web portal to all federal, state and local government web resources and services.